Regional Weather Roundup
Issued by NWS Newport/Morehead, NC

Current Version | Previous Version | Text Only | Print | Product List | Glossary On
Versions: 1 2 3 4 5 6 7 8 9 10 11 12 13 14 15 16 17 18 19 20 21 22 23 24 25 26 27 28 29 30 31 32 33 34 35 36 37 38 39 40 41 42 43 44 45 46 47 48 49 50
000
ASUS42 KMHX 230322
RWRMHX
WEATHER ROUNDUP FOR EASTERN NORTH CAROLINA
NATIONAL WEATHER SERVICE NEWPORT/MOREHEAD CITY NC
1100 PM EDT MON SEP 22 2014

NOTE: "FAIR" INDICATES FEW OR NO CLOUDS BELOW 12,000 FEET
WITH NO SIGNIFICANT WEATHER AND/OR OBSTRUCTIONS TO VISIBILITY

NCZ015>017-031-032-045>047-102-103-230400-
NORTH COAST

CITY           SKY/WX    TMP DP  RH WIND       PRES   REMARKS
EDENTON        MOCLDY    63  60  88 CALM      30.15R
ELIZABETH CITY MOCLDY    67  60  78 N9        30.14R
KITTY HAWK     PTCLDY    69  58  67 N6        30.12S
MANTEO         PTCLDY    68  58  70 NE8       30.13S

$$

NCZ045>047-081-094-103-104-230400-
CENTRAL COAST

CITY           SKY/WX    TMP DP  RH WIND       PRES   REMARKS
FRISCO         MOCLDY    68  61  78 NE6       30.11S
SWANQUARTER      N/A     66 N/A N/A NE2       30.09S

$$

NCZ095-097-098-100-101-230400-
SOUTHERN COAST

CITY           SKY/WX    TMP DP  RH WIND       PRES   REMARKS
BEAUFORT       MOCLDY    71  64  78 NE6       30.10F
CEDAR ISLAND     N/A     73 N/A N/A N9G15     30.15S
JACKSONVILLE   CLOUDY    71  62  73 N5        30.10S
NEWPORT        NOT AVBL
PINEY ISLAND   MOCLDY    75  62  64 NE10      30.11R
WILMINGTON     LGT RAIN  68  66  93 CALM      30.10S


$$

NCZ011>013-027>030-043-044-078>080-089-090>093-098-230400-
COASTAL PLAIN

CITY           SKY/WX    TMP DP  RH WIND       PRES   REMARKS
AHOSKIE        CLOUDY    62  57  82 CALM      30.15R
CLINTON        CLOUDY    69  58  69 NE6       30.12F
ELIZABETHTOWN  CLOUDY    68  58  71 CALM      30.11S
GOLDSBORO      CLOUDY    69  62  77 CALM      30.12R
GREENVILLE     CLOUDY    64  59  82 CALM      30.15R
HAVELOCK       MOCLDY    68  64  87 CALM      30.12S
KENANSVILLE    CLOUDY    66  57  72 N5        30.13S
KINSTON        CLOUDY    66  60  80 N3        30.14R
NEW BERN       CLOUDY    68  62  81 CALM      30.13R
RICHLANDS      CLOUDY    66  59  77 CALM      30.11F
ROANOKE RAPIDS NOT AVBL
ROCKY MOUNT    CLOUDY    65  60  84 CALM      30.15R
WASHINGTON     CLOUDY    64  59  81 NE3       30.14R
WHITEVILLE     CLOUDY    66  62  86 CALM      30.09F

$$

AMZ130-135-150-152-154-156-158-170-250-252-270-ANZ085-086-088-633-658-670-230400-
MARINE OBSERVATIONS

STATION/POSITION TIME  TEMP    WIND        PRES    WAVE   SWELL
                       AIR SEA DIR/SP/G            HT/PER HT/PER
                 (UTC) (F)     (DEG/KT/KT) (MB)    (FT/S) (FT/S)
CHESAPEAKE LIGHT 0300   70      10/ 17/ 18 1021.2
BUOY 44014       0300   72 76  360/ 16/ 17 1019.7    3/ 8   2/ 8
DUCK             0300   71 75   20/ 12/ 15 1019.5
2E DUCK          0300                        N/A     2/ 8
OREGON INLET     0300   71 76   20/  9/ 12 1019.9
BUOY 44095       0300      74                N/A     3/ 8
20E OREGON INLET NOT AVBL
HATTERAS CG      NOT AVBL
DIAMOND BUOY     0300   74      10/ 14/ 19 1019.1    4/ 7   2/ 7
CAPE LOOKOUT     0300   73      20/ 10/ 13 1019.1
BEAUFORT LAB     0300   71 76   50/  5/  6 1018.7
30 SE NEW RIVER  0300   77 82   50/ 12/ 14 1018.4    3/ 8   2/ 8
5 SE WRIGHTSVILL 0200   70 79  340/  6/  8   N/A
BUOY 41002       0245   80 81  200/  2/  4 1019.4    4/ 7   3/ 7
BUOY 41004       0300   78 82   30/ 16/ 17 1017.2    3/ 4   2/ 8

$$


USA.gov is the U.S. government's official web portal to all federal, state and local government web resources and services.